This demonstration page uses our WeatherBlox Daily Observations layout. Learn more.

Left ArrowRight Arrow

39.01783, -85.05884

Hourly Observations for August 19, 2017

Temp ( °F °C ) Dew Point ( °F °C ) Humidity (%) Winds ( mph kmh ) Pressure ( in mb ) Visibility ( mi km ) Precip ( " mm )
12:52 am 00:52 Clear 71 21.7 66 18.9 84 84 W 7 11 29.92 1013 10 16 0.00 0.00
1:52 am 01:52 Clear 71 21.7 66 18.9 84 84 W 3 6 29.93 1013 10 16 0.00 0.00
2:52 am 02:52 Cloudy 67 19.4 67 19.4 100 100 SW 3 6 29.91 1013 10 16 0.00 0.00
3:52 am 03:52 Mostly Cloudy 67 19.4 66 18.9 97 97 S 5 7 29.91 1013 10 16 0.00 0.00
4:52 am 04:52 Mostly Cloudy 68 20 66 18.9 93 93 SSW 6 9 29.90 1013 10 16 0.00 0.00
5:52 am 05:52 Mostly Cloudy 69 20.6 67 19.4 93 93 Calm 29.91 1013 10 16 0.00 0.00
6:52 am 06:52 Cloudy 67 19.4 67 19.4 100 100 S 3 6 29.92 1013 10 16 0.00 0.03
7:52 am 07:52 Cloudy 69 20.6 67 19.4 93 93 WSW 5 7 29.93 1014 10 16 0.00 0.00
8:52 am 08:52 Mostly Cloudy 70 21.1 68 20 93 93 SW 8 13 29.93 1014 10 16 0.00 0.03
9:52 am 09:52 Mostly Cloudy 73 22.8 70 21.1 90 90 S 7 11 29.93 1014 10 16 0.00 0.00
10:52 am 10:52 Mostly Cloudy 76 24.4 69 20.6 79 79 SW 8 13 29.94 1014 10 16 0.00 0.00
11:52 am 11:52 Mostly Cloudy 78 25.6 70 21.1 76 76 SW 7 11 29.95 1014 10 16 0.00 0.00
12:52 pm 12:52 Partly Cloudy 83 28.3 70 21.1 65 65 SSW 8 13 29.94 1014 10 16 0.00 0.00
1:52 pm 13:52 Mostly Cloudy 83 28.3 69 20.6 63 63 SW 5 7 29.93 1014 10 16 0.00 0.00
2:52 pm 14:52 Mostly Cloudy 86 30 68 20 55 55 WSW 12 19 29.92 1013 10 16 0.00 0.00
3:52 pm 15:52 Partly Cloudy 87 30.6 67 19.4 51 51 W 10 17 29.91 1013 10 16 0.00 0.00
4:52 pm 16:52 Partly Cloudy 87 30.6 67 19.4 51 51 W 9 15 29.90 1013 10 16 0.00 0.00
5:52 pm 17:52 Partly Cloudy 87 30.6 70 21.1 57 57 SW 6 9 29.90 1013 10 16 0.00 0.00
6:52 pm 18:52 Mostly Sunny 82 27.8 68 20 63 63 SSW 6 9 29.92 1013 10 16 0.00 0.00
7:52 pm 19:52 Partly Cloudy 82 27.8 68 20 63 63 WSW 5 7 29.92 1013 10 16 0.00 0.00
8:52 pm 20:52 Mostly Clear 79 26.1 68 20 69 69 Calm 29.93 1014 10 16 0.00 0.00
9:52 pm 21:52 Mostly Clear 76 24.4 69 20.6 79 79 WSW 3 6 29.95 1014 10 16 0.00 0.00
10:52 pm 22:52 Mostly Clear 74 23.3 69 20.6 85 85 Calm 29.97 1015 10 16 0.00 0.00
11:52 pm 23:52 Partly Cloudy 70 21.1 69 20.6 97 97 Calm 29.98 1015 10 16 0.00 0.00

Powered by AerisWeather